Regional Weather Roundup
Issued by NWS Newport/Morehead, NC

Current Version | Previous Version | Graphics & Text | Print | Product List | Glossary Off
Versions: 1 2 3 4 5 6 7 8 9 10 11 12 13 14 15 16 17 18 19 20 21 22 23 24 25 26 27 28 29 30 31 32 33 34 35 36 37 38 39 40 41 42 43 44 45 46 47 48 49

000
ASUS42 KMHX 181414
RWRMHX
WEATHER ROUNDUP FOR EASTERN NORTH CAROLINA
NATIONAL WEATHER SERVICE NEWPORT/MOREHEAD CITY NC
1000 AM EDT FRI AUG 18 2017

NOTE: "FAIR" INDICATES FEW OR NO CLOUDS BELOW 12,000 FEET
WITH NO SIGNIFICANT WEATHER AND/OR OBSTRUCTIONS TO VISIBILITY

NCZ015>017-031-032-045>047-102-103-181500-
NORTH COAST

CITY           SKY/WX    TMP DP  RH WIND       PRES   REMARKS
EDENTON        CLOUDY    85  80  84 CALM      29.95F
ELIZABETH CITY MOSUNNY   86  81  85 SW10      29.94S HX 102
KITTY HAWK     SUNNY     85  78  79 CALM      29.94S
MANTEO         PTSUNNY   86  78  78 SW9       29.96S

$$

NCZ045>047-081-094-103-104-181500-
CENTRAL COAST

CITY           SKY/WX    TMP DP  RH WIND       PRES   REMARKS
FRISCO         SUNNY     87  82  85 SW9       29.97S HX 106

$$

NCZ095-097-098-100-101-181500-
SOUTHERN COAST

CITY           SKY/WX    TMP DP  RH WIND       PRES   REMARKS
BEAUFORT       CLOUDY    85  82  91 SW14      29.97R HX 102
CEDAR ISLAND   NOT AVBL
JACKSONVILLE   MOSUNNY   87  81  82 SW7       29.95S HX 104
PINEY ISLAND   MOSUNNY  N/A N/A N/A SW9       29.96R
WILMINGTON     SUNNY     88  80  77 W9        29.96S HX 104


$$

NCZ011>013-027>030-043-044-078>080-089-090>093-098-181500-
COASTAL PLAIN

CITY           SKY/WX    TMP DP  RH WIND       PRES   REMARKS
AHOSKIE          N/A     79  78  96 CALM      29.95R
CLINTON        SUNNY     83  80  88 SW5       29.96S
ELIZABETHTOWN  NOT AVBL
GOLDSBORO      MOSUNNY   77  77 100 S3        29.92S
GREENVILLE     PTSUNNY   84  79  84 SW6       29.96F
HAVELOCK       SUNNY     90  79  70 SW10      29.96  HX 106
KENANSVILLE    SUNNY     84  79  84 SW5       29.96S
KINSTON        SUNNY     86  77  74 SW5       29.96S
NEW BERN       MOSUNNY   88  81  79 SW8       29.96S HX 106
RICHLANDS      SUNNY     88  80  77 SW7       29.96S HX 104
ROCKY MOUNT    PTSUNNY   81  77  88 SW6       29.95S
WASHINGTON     MOSUNNY   86  80  82 SW8       29.95S HX 100
WHITEVILLE     SUNNY     85  78  79 SW5       29.97R

$$

AMZ130-135-150-152-154-156-158-170-250-252-270-ANZ085-086-088-633-658-670-181500-
MARINE OBSERVATIONS

STATION/POSITION TIME  TEMP    WIND        PRES    WAVE   SWELL
                       AIR SEA DIR/SP/G            HT/PER HT/PER
                 (UTC) (F)     (DEG/KT/KT) (MB)    (FT/S) (FT/S)
CHESAPEAKE LIGHT NOT AVBL
64 E VA BEACH    1350   79 77  180/ 10/ 10 1014.7    3/ 8   2/ 8
DUCK             1324   83 72  200/  9/ 13 1013.6
2 E DUCK         1330      78                N/A     2/ 8
OREGON INLET     1324   84 83  180/ 10/ 14 1014.3
13E OREGON INLT  1348      80                N/A     3/ 4   2/ 8
HATTERAS CG      1324   85 83  230/  8/ 13 1014.5
DIAMOND BUOY     1350   84 86  210/ 12/ 14 1014.8    2/ 8   2/ 8
CAPE LOOKOUT     1400   85     210/  9/ 12 1014.4
BEAUFORT LAB     1324   85 81  200/  7/ 11 1014.0
30 SE NEW RVR IN 1308   84 83  230/ 10/ 12 1015.0
30 SE NEW RVR IN 1343      83                N/A     3/ 5
27 SE WRIGHTSVLE 1308   84 83  210/ 10/ 14 1014.8
5 SE WRIGHTSVLE  1308   84 83  240/ 10/ 14 1014.4
225 S CAPE HAT   1350   84 84  220/  8/ 10 1016.9    3/ 5   2/ 5
41 SE CHARLESTON 1400   84 85  230/ 12/ 14 1015.7

$$




USA.gov is the U.S. government's official web portal to all federal, state and local government web resources and services.